Location: *
(47.6569°N, 7.4256°E)
Time: 02:39:37
(UTC+00:00)

Cosmos 1553 Rocket - Pass Details

Date: 14 December 2019
Orbit: 942 x 1007 km, 82.9° (Epoch: 25 January)

Event Time Altitude Azimuth Distance (km) Brightness Sun altitude
Rises 17:33:11 0° 351° (N) 3,727 7.0 -18.3°
Reaches altitude 10° 17:35:43 10° 352° (N) 2,781 6.3 -18.7°
Maximum altitude 17:42:08 85° 80° (E) 1,016 4.0 -19.7°
Drops below altitude 10° 17:48:34 10° 171° (S) 2,778 6.4 -20.8°
Sets 17:51:05 0° 172° (S) 3,722 7.1 -21.2°
